Le nostre stazioni meteo in Italia

Pubblicità
Il mio iltempo24.it
Ustica, Italia (16400): Temperatura & dewpoint: 02.07.2020 13:00:00 - 08.07.2020 13:00:00 (CEST)Ustica, Italia (16400): velocità del vento: 02.07.2020 13:00:00 - 08.07.2020 13:00:00 (CEST)Ustica, Italia (16400): direzione del vento: 02.07.2020 13:00:00 - 08.07.2020 13:00:00 (CEST)Ustica, Italia (16400): reduced air pressure: 02.07.2020 13:00:00 - 08.07.2020 13:00:00 (CEST)Ustica, Italia (16400): visibility: 02.07.2020 13:00:00 - 08.07.2020 13:00:00 (CEST)Ustica, Italia (16400): ore di luce: 02.07.2020 13:00:00 - 08.07.2020 13:00:00 (CEST)
Data & Tempo tt [°C] td [°C] ff [km/h] ff [kn] dd ppp [hPa] vv [km] sd [min]
08.07.2020 13:00:00 29,0 23,3 5 3 NNE 1015,6 25 60
08.07.2020 12:00:00 29,4 22,6 5 3 NNE 1015,4 25 60
08.07.2020 11:00:00 28,0 23,1 4 2 N 1015,3 25 60
08.07.2020 10:00:00 25,2 23,6 9 5 ESE 1015,2 20 48
08.07.2020 09:00:00 25,0 23,7 8 4 ESE 1014,8 20 60
08.07.2020 08:00:00 25,0 23,4 5 3 NE 1013,5 20 30
08.07.2020 07:00:00 - - - - - - - -
08.07.2020 06:00:00 - - - - - - - -
08.07.2020 05:00:00 - - - - - - - -
08.07.2020 04:00:00 - - - - - - - -
08.07.2020 03:00:00 - - - - - - - -
08.07.2020 02:00:00 - - - - - - - -
08.07.2020 01:00:00 - - - - - - - -
08.07.2020 00:00:00 - - - - - - - -
07.07.2020 23:00:00 - - - - - - - -
07.07.2020 22:00:00 - - - - - - - -
07.07.2020 21:00:00 - - - - - - - -
07.07.2020 20:00:00 25,6 23,1 5 3 NNE 1012,4 25 30
07.07.2020 19:00:00 26,8 24,4 11 6 N 1011,4 25 60
07.07.2020 18:00:00 28,0 24,0 11 6 N 1011,3 25 60
07.07.2020 17:00:00 29,2 24,1 9 5 N 1011,0 25 60
07.07.2020 16:00:00 29,8 23,3 9 5 N 1011,2 30 60
07.07.2020 15:00:00 29,8 23,3 4 2 N 1011,2 25 60
07.07.2020 14:00:00 29,0 24,2 8 4 NNO 1011,1 25 60
07.07.2020 13:00:00 28,4 24,7 8 4 NNO 1010,9 25 60
07.07.2020 12:00:00 26,6 23,6 4 2 N 1010,3 25 60
07.07.2020 11:00:00 26,6 23,7 4 2 N 1009,8 20 60
07.07.2020 10:00:00 26,2 23,3 4 2 N 1009,3 20 60
07.07.2020 09:00:00 25,2 22,9 4 2 N 1009,0 20 60
07.07.2020 08:00:00 23,4 23,1 5 3 S 1008,7 20 12
07.07.2020 07:00:00 - - - - - - - -
07.07.2020 06:00:00 - - - - - - - -
07.07.2020 05:00:00 - - - - - - - -
07.07.2020 04:00:00 - - - - - - - -
07.07.2020 03:00:00 - - - - - - - -
07.07.2020 02:00:00 - - - - - - - -
07.07.2020 01:00:00 - - - - - - - -
07.07.2020 00:00:00 - - - - - - - -
06.07.2020 23:00:00 - - - - - - - -
06.07.2020 22:00:00 - - - - - - - -
06.07.2020 21:00:00 - - - - - - - -
06.07.2020 20:00:00 23,6 23,3 16 9 NO 1008,8 18 24
06.07.2020 19:00:00 24,2 23,3 16 9 NNO 1008,7 20 60
06.07.2020 18:00:00 25,4 23,3 18 10 NNO 1008,7 20 60
06.07.2020 17:00:00 26,8 24,1 16 9 NNO 1009,5 20 60
06.07.2020 16:00:00 27,0 24,3 18 10 NNO 1009,6 20 60
06.07.2020 15:00:00 27,0 24,8 16 9 NNO 1009,8 20 48
06.07.2020 14:00:00 26,0 24,0 18 10 NO 1010,4 20 48
06.07.2020 13:00:00 26,8 24,7 18 10 NNO 1010,7 20 60
06.07.2020 12:00:00 27,0 24,8 4 2 N 1010,5 20 48
06.07.2020 11:00:00 27,0 24,8 11 6 NNO 1010,7 20 60
06.07.2020 10:00:00 26,8 25,4 4 2 N 1010,8 20 60
06.07.2020 09:00:00 25,0 23,1 13 7 O 1011,0 20 60
06.07.2020 08:00:00 24,0 21,9 0 0 N 1011,1 20 12
06.07.2020 07:00:00 - - - - - - - -
06.07.2020 06:00:00 - - - - - - - -
06.07.2020 05:00:00 - - - - - - - -
06.07.2020 04:00:00 - - - - - - - -
06.07.2020 03:00:00 - - - - - - - -
06.07.2020 02:00:00 - - - - - - - -
06.07.2020 01:00:00 - - - - - - - -
06.07.2020 00:00:00 - - - - - - - -
05.07.2020 23:00:00 - - - - - - - -
05.07.2020 22:00:00 - - - - - - - -
05.07.2020 21:00:00 - - - - - - - -
05.07.2020 20:00:00 24,8 21,7 0 0 N 1012,7 20 30
05.07.2020 19:00:00 25,0 20,3 0 0 N 1014,0 20 48
05.07.2020 18:00:00 27,0 22,2 0 0 N 1014,1 20 36
05.07.2020 17:00:00 27,0 21,1 0 0 N 1013,5 20 36
05.07.2020 16:00:00 29,0 22,5 0 0 N 1013,7 20 48
05.07.2020 15:00:00 29,0 23,4 0 0 N 1014,1 20 48
05.07.2020 14:00:00 29,0 23,9 0 0 N 1014,3 20 48
05.07.2020 13:00:00 29,8 24,2 0 0 N 1014,2 20 60
05.07.2020 12:00:00 29,2 23,6 0 0 N 1014,1 20 60
05.07.2020 11:00:00 28,0 23,6 0 0 N 1014,4 20 60
05.07.2020 10:00:00 27,4 23,2 0 0 N 1014,4 20 60
05.07.2020 09:00:00 26,4 23,1 0 0 N 1014,5 20 60
05.07.2020 08:00:00 24,8 22,5 0 0 N 1014,8 20 12
05.07.2020 07:00:00 - - - - - - - -
05.07.2020 06:00:00 - - - - - - - -
05.07.2020 05:00:00 - - - - - - - -
05.07.2020 04:00:00 - - - - - - - -
05.07.2020 03:00:00 - - - - - - - -
05.07.2020 02:00:00 - - - - - - - -
05.07.2020 01:00:00 - - - - - - - -
05.07.2020 00:00:00 - - - - - - - -
04.07.2020 23:00:00 - - - - - - - -
04.07.2020 22:00:00 - - - - - - - -
04.07.2020 21:00:00 - - - - - - - -
04.07.2020 20:00:00 24,0 19,7 0 0 N 1014,6 20 36
04.07.2020 19:00:00 25,0 18,7 0 0 N 1014,7 20 60
04.07.2020 18:00:00 26,4 17,7 0 0 N 1014,7 20 60
04.07.2020 17:00:00 27,0 18,0 0 0 N 1014,8 20 60
04.07.2020 16:00:00 27,8 18,8 0 0 N 1015,0 20 60
04.07.2020 15:00:00 28,6 19,2 0 0 N 1015,2 20 48
04.07.2020 14:00:00 29,2 20,4 0 0 N 1015,2 20 60
04.07.2020 13:00:00 29,0 19,9 13 7 N 1015,4 20 60
04.07.2020 12:00:00 28,4 21,9 13 7 N 1014,9 20 60
04.07.2020 11:00:00 27,4 22,0 13 7 N 1014,7 20 60
04.07.2020 10:00:00 27,4 23,0 4 2 N 1014,5 20 60
04.07.2020 09:00:00 27,2 23,5 4 2 N 1014,6 20 60
04.07.2020 08:00:00 25,4 24,0 8 4 N 1014,2 20 54
04.07.2020 07:00:00 - - - - - - - -
04.07.2020 06:00:00 - - - - - - - -
04.07.2020 05:00:00 - - - - - - - -
04.07.2020 04:00:00 - - - - - - - -
04.07.2020 03:00:00 - - - - - - - -
04.07.2020 02:00:00 - - - - - - - -
04.07.2020 01:00:00 - - - - - - - -
04.07.2020 00:00:00 - - - - - - - -
03.07.2020 23:00:00 - - - - - - - -
03.07.2020 22:00:00 - - - - - - - -
03.07.2020 21:00:00 - - - - - - - -
03.07.2020 20:00:00 25,8 25,5 4 2 N 1012,7 20 48
03.07.2020 19:00:00 27,2 -30,0 5 3 N 1012,6 20 60
03.07.2020 18:00:00 28,0 24,7 5 3 N 1013,4 20 60
03.07.2020 17:00:00 29,0 24,2 5 3 N 1013,2 20 60
03.07.2020 16:00:00 29,0 24,5 9 5 N 1013,2 20 60
03.07.2020 15:00:00 30,0 25,8 4 2 N 1013,2 20 60
03.07.2020 14:00:00 28,8 24,7 9 5 NNO 1013,3 20 60
03.07.2020 13:00:00 28,4 24,4 8 4 N 1013,0 20 60
03.07.2020 12:00:00 27,4 23,6 8 4 NNO 1012,9 20 60
03.07.2020 11:00:00 27,4 24,3 8 4 N 1012,7 20 60
03.07.2020 10:00:00 26,8 24,0 8 4 N 1012,7 20 42
03.07.2020 09:00:00 26,2 24,0 8 4 N 1012,1 20 12
03.07.2020 08:00:00 24,0 23,0 4 2 N 1012,0 20 6
03.07.2020 07:00:00 - - - - - - - -
03.07.2020 06:00:00 - - - - - - - -
03.07.2020 05:00:00 - - - - - - - -
03.07.2020 04:00:00 - - - - - - - -
03.07.2020 03:00:00 - - - - - - - -
03.07.2020 02:00:00 - - - - - - - -
03.07.2020 01:00:00 - - - - - - - -
03.07.2020 00:00:00 - - - - - - - -
02.07.2020 23:00:00 - - - - - - - -
02.07.2020 22:00:00 - - - - - - - -
02.07.2020 21:00:00 - - - - - - - -
02.07.2020 20:00:00 23,8 23,8 13 7 OSO 1011,4 20 36
02.07.2020 19:00:00 25,2 25,2 15 8 OSO 1011,4 20 48
02.07.2020 18:00:00 26,6 23,1 18 10 OSO 1011,5 20 36
02.07.2020 17:00:00 27,2 23,1 21 11 SO 1011,7 20 54
02.07.2020 16:00:00 26,8 23,5 21 11 SO 1012,2 20 42
02.07.2020 15:00:00 27,4 24,5 4 2 N 1012,4 20 36
02.07.2020 14:00:00 27,0 24,9 4 2 N 1012,5 20 60
02.07.2020 13:00:00 27,4 25,3 4 2 N 1012,5 20 48

tt = Temperatura
td = dewpoint
ff = velocità del vento
dd = direzione del vento
ppp = reduced air pressure
vv = visibility
sd = ore di luce

Stazioni seguenti

WeatherPro
AMSI
MeteoEarth